This is the latest recevied weather packets stored in our database for station/object N2MLB-WX. If no packets are shown the sender has not sent any weather packets the latest 10 day(s).
| Time | Temp. | Humidity | Pressure | Rain* | Wind** | Luminosity | Snow |
|---|---|---|---|---|---|---|---|
| 1777829542 | 12.78° C | 40% | 1009 hPa | 0 mm | - | 110 W/m² | - |
| 1777829241 | 12.78° C | 37% | 1009 hPa | 0 mm | - | 108 W/m² | - |
| 1777828942 | 13.33° C | 37% | 1009 hPa | 0 mm | - | 101 W/m² | - |
| 1777828640 | 12.78° C | 45% | 1009 hPa | 0 mm | - | 94 W/m² | - |
| 1777828339 | 12.78° C | 40% | 1009 hPa | 0 mm | - | 124 W/m² | - |
| 1777828040 | 13.89° C | 39% | 1009 hPa | 0 mm | - | 140 W/m² | - |
| 1777827742 | 12.78° C | 48% | 1009 hPa | 0 mm | - | 126 W/m² | - |
| 1777827440 | 12.78° C | 56% | 1009 hPa | 0 mm | - | 136 W/m² | - |
| 1777827140 | 11.67° C | 53% | 1009 hPa | 0 mm | - | 73 W/m² | - |
| 1777826840 | 12.22° C | 57% | 1009 hPa | 0 mm | - | 158 W/m² | - |
| 1777826540 | 10.56° C | 59% | 1009 hPa | 0 mm | - | 66 W/m² | - |
| 1777826239 | 11.11° C | 58% | 1009 hPa | 0 mm | - | 76 W/m² | - |
| 1777825940 | 10.56° C | 62% | 1009 hPa | 0 mm | - | 87 W/m² | - |
| 1777825640 | 10° C | 64% | 1009 hPa | 0 mm | - | 73 W/m² | - |
| 1777825340 | 10° C | 67% | 1009 hPa | 0 mm | - | 56 W/m² | - |
| 1777825039 | 10° C | 66% | 1009 hPa | 0 mm | - | 78 W/m² | - |
| 1777824739 | 10.56° C | 67% | 1009 hPa | 0 mm | - | 57 W/m² | - |
| 1777824440 | 11.67° C | 64% | 1009 hPa | 0 mm | - | 73 W/m² | - |
| 1777824140 | 12.22° C | 59% | 1009 hPa | 0 mm | - | 189 W/m² | - |
| 1777823839 | 12.22° C | 61% | 1010 hPa | 0 mm | - | 138 W/m² | - |
| 1777823540 | 11.11° C | 62% | 1010 hPa | 0 mm | - | 161 W/m² | - |
| 1777823239 | 12.78° C | 63% | 1010 hPa | 0 mm | - | 148 W/m² | - |
| 1777822939 | 12.22° C | 60% | 1010 hPa | 0 mm | - | 150 W/m² | - |
| 1777822643 | 10.56° C | 63% | 1010 hPa | 0 mm | - | 131 W/m² | - |
| 1777822340 | 10.56° C | 66% | 1010 hPa | 0 mm | - | 94 W/m² | - |
* Rain latest hour (hover to see other rain measurements)
** Current wind speed in m/s (hover to see current wind gust speed)